User: anonymous   Login
Location: Capannuccia
(43.7000°N, 11.3000°E)
Time: 12:33:54
(UTC+00:00)
Language:

FENGYUN 1C DEB - Orbit

View from above orbital plane
View from above orbital plane
View from above satellite
View from above satellite

Ground track
Ground track

The orbit data is extracted from the following two-line orbital elements,

1 30093U 99025QW  21263.01061531  .00000414  00000-0  16088-3 0  9996
2 30093  98.9067  58.8223 0081841 208.0955 272.3591 14.33421034766222
Epoch (UTC): 20 September 2021 00:15:17
Eccentricity: 0.0081841
inclination: 98.9067°
perigee height: 722 km
apogee height: 839 km
right ascension of ascending node: 58.8223°
argument of perigee: 208.0955°
revolutions per day: 14.33421034
mean anomaly at epoch: 272.3591°
orbit number at epoch: 76622

The dashed part of the orbit path shows where the satellite is in the earth's shadow,  

DLR